www.pogodaiklimat.ru
ПОГОДА в Лознице

Архив погоды в Лознице (Сербия)

Время
(UTC), дата
13 11.05
14 11.05
15 11.05
16 11.05
17 11.05
18 11.05
19 11.05
20 11.05
21 11.05
22 11.05
23 11.05
00 12.05
01 12.05
02 12.05
03 12.05
04 12.05
05 12.05
06 12.05
07 12.05
08 12.05
09 12.05
10 12.05
11 12.05
12 12.05
13 12.05
14 12.05
15 12.05
16 12.05
17 12.05
18 12.05
19 12.05
20 12.05
21 12.05
22 12.05
23 12.05
00 13.05
01 13.05
02 13.05
03 13.05
04 13.05
05 13.05
06 13.05
07 13.05
08 13.05
09 13.05
10 13.05
11 13.05
12 13.05
13 13.05
14 13.05
15 13.05
16 13.05
17 13.05
18 13.05
19 13.05
20 13.05
21 13.05
22 13.05
23 13.05
00 14.05
01 14.05
02 14.05
03 14.05
04 14.05
05 14.05
06 14.05
07 14.05
08 14.05
09 14.05
10 14.05
11 14.05
12 14.05
13 14.05
14 14.05
15 14.05
16 14.05
17 14.05
18 14.05
19 14.05
20 14.05
21 14.05
22 14.05
23 14.05
00 15.05
01 15.05
02 15.05
03 15.05
04 15.05
05 15.05
06 15.05
07 15.05
08 15.05
09 15.05
10 15.05
11 15.05
12 15.05
13 15.05
14 15.05
15 15.05
16 15.05
17 15.05
18 15.05
19 15.05
20 15.05
21 15.05
22 15.05
23 15.05
00 16.05
01 16.05
02 16.05
03 16.05
04 16.05
05 16.05
06 16.05
07 16.05
08 16.05
09 16.05
10 16.05
11 16.05
12 16.05
13 16.05
14 16.05
15 16.05
16 16.05
17 16.05
18 16.05
19 16.05
20 16.05
21 16.05
22 16.05
23 16.05
00 17.05
01 17.05
02 17.05
03 17.05
04 17.05
05 17.05
06 17.05
07 17.05
08 17.05
09 17.05
10 17.05
11 17.05
12 17.05
13 17.05
14 17.05
15 17.05
16 17.05
17 17.05
18 17.05
19 17.05
20 17.05
21 17.05
22 17.05
23 17.05
00 18.05
01 18.05
02 18.05
03 18.05
04 18.05
05 18.05
06 18.05
07 18.05
08 18.05
09 18.05
10 18.05
11 18.05
12 18.05
Ветер
(напр.,м/с)
Видим. Явления Облачность Т
(С)
Тd
(С)
f
(%)
Тe
(С)
Тes
(С)
Комфортность P
(гПа)
Po
(гПа)
Тmin
(С)
Tmax
(С)
R
(мм)
R24
(мм)
S
(см)
СЗ 1 20 км 4/4 1000 м
[Cu Sc]
+22.8 +5.3 32 +23 +33 комфорт 1018.0 1003.8
СЗ 1 20 км 5/5 1000 м
[Cu Sc]
+23.0 +6.8 35 +24 +30 комфорт 1018.0 1003.8
СЗ 2 20 км 4/4 1000 м
[Cu Sc]
+23.7 +6.7 33 +24 +28 комфорт 1017.9 1003.8
СЗ 1 20 км 4/4 1000 м
[Cu Sc]
+23.3 +6.5 34 +24 +26 комфорт 1017.2 1003.0
З 1 20 км ясно +23.0 +6.4 34 +24 +24 комфорт 1016.8 1002.6
СЗ 2 20 км ясно +20.5 +6.8 41 +22 +22 комфорт 1017.1 1002.8 +24.2
Ю 1 20 км ясно +17.6 +9.0 57 +19 +19 1017.7 1003.3
Ю 2 20 км ясно +16.0 +10.0 68 +16 +16 1018.1 1003.6
ЮЗ 1 20 км ясно +14.7 +9.9 73 +15 +15 1018.4 1003.8
ЮЗ 2 20 км 4/4 1000 м
[Sc]
+14.5 +10.8 78 +14 +14 1018.5 1003.9
ЮЗ 2 20 км 8/8 1000 м
[Sc]
+13.7 +11.1 84 +13 +13 1018.5 1003.9
ЮЗ 1 10 км 10/10 1000 м
[Sc]
+13.6 +11.6 88 +14 +14 1018.3 1003.7
ЮЗ 1 10 км 10/10 1000 м
[Sc]
+13.6 +11.2 85 +14 +14 1018.1 1003.5
ЮЗ 2 10 км 10/10 1000 м
[Sc]
+13.3 +11.2 87 +13 +13 1018.1 1003.5
ЮЗ 2 10 км 10/10 1000 м
[Sc]
+13.1 +11.2 88 +12 +12 1017.9 1003.3
ЮЗ 1 10 км 9/9 1000 м
[Sc]
+13.0 +10.8 86 +13 +13 1018.1 1003.4
ЮЗ 1 20 км 9/9 1000 м
[Sc]
+13.2 +11.0 87 +13 +14 1018.2 1003.6
ЮЗ 1 20 км 8/8 1000 м
[Sc]
+14.4 +10.5 77 +15 +16 1018.6 1004.0 +12.9
З 2 20 км 8/0
[Ac As]
+15.8 +10.7 72 +16 +19 1018.8 1004.3
ЮЗ 1 20 км 8/3 1000 м
[Sc Ac As]
+17.6 +10.8 64 +19 +24 1018.7 1004.3
СВ 1 20 км 8/4 1000 м
[Cu Sc Ac As]
+18.9 +10.8 59 +21 +27 комфорт 1018.8 1004.4
В 2 20 км 6/4 1000 м
[Cu Sc Ac As]
+21.7 +11.3 52 +24 +32 комфорт 1018.2 1004.0
В 2 20 км 5/4 1000 м
[Cu Sc Cs]
+21.3 +10.6 50 +23 +33 комфорт 1017.7 1003.5
Ю 2 20 км в посл. час гроза 9/9 1000 м
[Cu Sc]
+21.2 +9.0 46 +22 +24 комфорт 1017.6 1003.4
Ю 3 4000 м гроза, ливневой дождь 10/10 1000 м
[Cb calv]
+15.3 +13.1 87 +15 +15 1018.9 1004.4
ЮЗ 2 10 км слаб. дождь {гроза} 8/8 1000 м
[Cu Sc]
+15.4 +12.5 83 +15 +17 1018.2 1003.7
З 1 10 км в посл. час дождь 5/3 1000 м
[Cu med, cong Cs]
+16.9 +12.9 77 +18 +23 1017.2 1002.8
ЮЗ 4 20 км 6/6 1000 м
[Cu Sc]
+17.6 +12.9 74 +17 +18 1017.5 1003.1
З 2 20 км слаб. дождь 8/8 1000 м
[Sc]
+17.0 +13.3 79 +17 +17 1018.2 1003.8
Ю 1 20 км в посл. час дождь {гроза} 8/8 1000 м
[Sc]
+16.4 +13.7 84 +17 +17 1018.4 1003.9 +22.2 14
Ю 1 20 км 3/3 1000 м
[Sc]
+15.2 +13.2 88 +16 +16 1018.4 1003.9
ЮЗ 1 20 км ясно +14.0 +12.8 92 +14 +14 1018.6 1004.0
Ю 1 20 км ясно +12.9 +11.8 93 +13 +13 1018.7 1004.0
Ю 1 20 км ясно +12.3 +11.2 93 +12 +12 1019.2 1004.5
Ю 1 20 км ясно +11.4 +10.5 94 +11 +11 1019.3 1004.5
ЮЗ 1 1000 м дымка ясно +11.3 +10.6 95 +11 +11 1019.3 1004.5
Ю 1 1000 м дымка ясно +11.3 +10.6 95 +11 +11 1019.4 1004.6
Ю 1 4000 м дымка ясно +11.1 +10.4 95 +11 +11 1019.4 1004.6
Ю 1 4000 м дымка ясно +11.0 +10.1 94 +11 +11 1019.5 1004.7
ЮЗ 2 4000 м дымка ясно +10.8 +9.6 92 +9 +10 1019.5 1004.7
ЮЗ 2 4000 м дымка 8/8 1000 м
[Sc]
+11.2 +9.9 92 +10 +10 1019.6 1004.8
ЮЗ 1 6000 м дымка 6/6 600 м
[Sc]
+12.0 +10.6 91 +12 +14 1019.8 1005.1 +10.6 14.0
В 1 20 км 4/0
[Cs]
+15.1 +11.2 78 +16 +25 1019.8 1005.3
ЮВ 1 20 км 4/0
[Cs]
+16.4 +11.1 71 +17 +31 опасность простуды 1019.6 1005.1
СЗ 1 20 км 4/4 1000 м
[Cu med, cong]
+19.4 +9.6 53 +21 +33 комфорт 1019.3 1004.9
В 1 20 км 3/3 1000 м
[Cu med, cong]
+21.2 +3.9 32 +21 +36 комфорт 1018.5 1004.2
В 2 20 км 3/3 1000 м
[Cu med, cong]
+22.1 +6.2 36 +23 +36 комфорт 1017.8 1003.6
СВ 1 10 км 4/4 1000 м
[Cu med, cong]
+22.2 +5.6 34 +23 +34 комфорт 1017.1 1002.9
В 2 20 км 4/4 1000 м
[Cu med, cong]
+22.7 +5.1 32 +23 +31 комфорт 1016.4 1002.2
С 2 20 км 3/3 1000 м
[Cu med, cong]
+22.9 +5.0 31 +23 +30 комфорт 1015.5 1001.3
В 2 20 км 3/3 1000 м
[Cu med, cong]
+23.1 +4.5 30 +23 +27 комфорт 1015.0 1000.9
СВ 2 20 км 5/0
[Ci]
+22.9 +4.3 30 +23 +26 комфорт 1014.4 1000.3
СВ 2 20 км 6/0
[Ci]
+21.7 +4.3 32 +22 +23 комфорт 1014.4 1000.2
В 1 20 км 8/0
[Cs]
+19.7 +5.3 39 +21 +21 комфорт 1014.6 1000.3 +23.5
ЮВ 1 20 км 8/0
[Cs]
+18.3 +5.9 44 +20 +20 1014.8 1000.4
штиль 0 20 км 6/0
[Cs]
+17.3 +6.2 48 +17 +17 1014.9 1000.5
штиль 0 20 км 6/0
[Cs]
+14.7 +9.9 73 +14 +14 1014.7 1000.2
штиль 0 20 км ясно +13.6 +10.7 83 +13 +13 1014.7 1000.1
Ю 1 20 км 1/0
[Ci fib]
+12.9 +10.4 85 +13 +13 1014.3 999.7
Ю 1 20 км ясно +11.9 +9.5 85 +12 +12 1014.0 999.3
Ю 1 20 км ясно +10.8 +9.1 89 +10 +10 1013.7 999.0
ЮЗ 2 20 км 3/0
[Ci fib]
+10.6 +9.1 90 +9 +9 1013.4 998.7
Ю 1 20 км 4/0
[Ac trans]
+10.2 +8.9 92 +10 +10 1013.3 998.6
В 1 20 км 8/0
[Ac As]
+10.5 +9.0 90 +10 +10 1013.6 998.9
ЮЗ 1 20 км 9/0
[Ac As]
+11.7 +10.0 89 +11 +12 1013.7 999.0
З 1 20 км слаб. дождь 9/9 1000 м
[Sc]
+12.1 +9.0 81 +12 +13 1014.1 999.4 +9.8 0.0 0.0
С 1 20 км в посл. час дождь 9/9 1000 м
[Sc]
+13.8 +10.2 79 +14 +15 1014.5 999.9
штиль 0 15 км 10/10 1000 м
[Sc]
+15.0 +10.0 72 +15 +15 1014.8 1000.3
З 2 10 км слаб. дождь 10/10 1000 м
[Sc]
+15.0 +12.0 82 +15 +15 1015.1 1000.6
З 2 10 км слаб. дождь 10/10 1000 м
[Sc]
+14.4 +12.4 88 +14 +14 1015.3 1000.8
З 1 10 км слаб. дождь 10/10 1000 м
[Sc]
+14.0 +12.3 89 +14 +14 1015.6 1001.0
З 1 10 км слаб. дождь 10/10 1000 м
[Sc]
+14.0 +12.3 89 +14 +14 1015.3 1000.7 2
ЮЗ 1 10 км слаб. дождь 10/10 1000 м
[Sc]
+14.4 +12.5 88 +15 +15 1015.0 1000.5
Ю 1 10 км слаб. дождь 10/10 1000 м
[Sc]
+14.8 +12.6 87 +15 +15 1014.8 1000.3
ЮВ 1 10 км в посл. час дождь 9/9 1000 м
[Sc]
+15.3 +11.7 79 +16 +17 1014.5 1000.0
З 1 10 км 9/9 1000 м
[Sc]
+15.3 +11.7 79 +16 +16 1014.3 999.8
Ю 1 10 км 9/9 1000 м
[Sc]
+15.0 +12.0 82 +16 +16 1014.3 999.8
В 1 10 км {дождь} 8/8 1000 м
[Sc]
+14.7 +12.5 87 +15 +15 1014.4 999.9 +15.5 3
ЮВ 2 10 км 9/9 1000 м
[Sc]
+14.5 +13.0 91 +14 +14 1014.7 1000.2
ЮВ 1 10 км 10/10 1000 м
[Sc]
+14.3 +12.9 91 +15 +15 1015.1 1000.6
ЮЗ 1 10 км 10/10 1000 м
[Sc]
+14.0 +12.8 92 +14 +14 1015.1 1000.5
В 1 10 км 10/10 1000 м
[Sc]
+13.7 +12.5 92 +14 +14 1015.0 1000.4
ЮВ 1 10 км 10/10 1000 м
[Sc]
+13.6 +12.4 92 +14 +14 1014.8 1000.2
В 1 10 км 9/9 1000 м
[Sc]
+13.3 +12.3 94 +13 +13 1014.3 999.7
штиль 0 10 км слаб. дождь 10/10 1000 м
[Sc]
+13.0 +12.0 94 +12 +12 1014.1 999.5
Ю 1 10 км в посл. час дождь 10/10 1000 м
[Sc]
+12.5 +11.6 94 +12 +12 1013.9 999.3
ЮВ 1 6000 м дымка 9/9 1000 м
[Sc]
+11.8 +10.7 93 +12 +12 1014.0 999.3
ЮВ 1 1000 м дымка 9/9 1000 м
[Sc]
+11.5 +10.6 94 +11 +11 1014.1 999.4
штиль 0 4000 м дымка 8/8 1000 м
[Sc]
+12.2 +10.7 91 +12 +12 1014.3 999.7
З 1 4000 м 6/6 600 м
[Sc]
+13.2 +11.6 90 +13 +15 1014.8 1000.2 +11.5 0.0 3.0
З 1 6000 м дымка 5/5 600 м
[Cu Sc]
+15.2 +12.5 84 +16 +21 1014.7 1000.2
В 2 10 км 5/5 600 м
[Cu Sc]
+17.7 +10.8 64 +18 +24 1014.6 1000.2
В 2 20 км 6/6 1000 м
[Cu Sc]
+18.9 +10.8 59 +20 +26 1014.6 1000.3
В 3 20 км 6/6 1000 м
[Cu Sc]
+18.8 +11.0 60 +20 +26 1014.6 1000.3
В 3 20 км 8/8 1000 м
[Cu Sc]
+20.4 +11.8 58 +23 +26 комфорт 1013.9 999.7
В 3 20 км 8/8 1000 м
[Cu Sc]
+20.9 +11.5 55 +23 +26 комфорт 1013.5 999.3
В 4 20 км 8/8 1000 м
[Cu Sc]
+20.6 +11.7 57 +23 +25 комфорт 1013.1 998.9
В 3 20 км 5/5 1000 м
[Cu med, cong]
+21.5 +10.8 51 +23 +28 комфорт 1012.6 998.3
В 3 20 км 4/4 1000 м
[Cu med, cong]
+21.4 +11.2 52 +23 +26 комфорт 1012.6 998.4
В 4 20 км 4/4 1000 м
[Sc]
+20.6 +11.7 57 +23 +24 комфорт 1012.6 998.4
В 4 20 км 6/0
[Cs]
+19.9 +11.7 59 +21 +22 комфорт 1012.8 998.6
В 2 20 км 6/1 1000 м
[Sc Cs]
+18.4 +11.8 65 +19 +19 1013.4 999.1 +22.0
В 2 20 км 4/0
[Ac trans]
+17.2 +11.6 70 +18 +18 1013.9 999.5
В 2 20 км 4/0
[Ac trans]
+16.3 +11.3 72 +16 +16 1014.2 999.8
В 1 20 км 4/0
[Ac trans]
+15.6 +11.6 77 +16 +16 1014.6 1000.1
В 1 20 км 5/0
[Ac trans]
+14.6 +11.8 83 +15 +15 1014.6 1000.1
В 1 20 км 5/0
[Ac trans]
+14.0 +12.3 89 +14 +14 1014.2 999.7
В 1 20 км 5/0
[Ac trans]
+13.3 +12.1 92 +13 +13 1013.9 999.3
штиль 0 20 км 3/0
[Ac trans]
+13.0 +11.7 92 +12 +12 1013.6 999.0
ЮВ 1 20 км 4/0
[Ac trans]
+12.7 +11.4 92 +13 +13 1013.8 999.2
Ю 1 20 км 8/0
[Ac trans Cs]
+12.0 +10.7 92 +12 +12 1013.8 999.2
штиль 0 20 км 8/0
[Ac trans Cs]
+11.7 +10.5 92 +11 +11 1013.9 999.2
штиль 0 20 км 5/0
[Ac As]
+12.8 +11.4 91 +12 +14 1013.8 999.2
СВ 1 20 км 8/0
[Ac As]
+14.0 +11.5 85 +14 +17 1014.1 999.6 +11.5
ЮВ 2 20 км 6/0
[Ac As]
+16.2 +11.4 73 +16 +21 1014.0 999.6
В 2 20 км 6/0
[Ac As]
+18.6 +11.5 63 +20 +27 1013.3 999.0
В 3 20 км 6/0
[Ac As]
+20.4 +10.7 54 +22 +30 комфорт 1013.0 998.8
В 4 20 км 4/1 1000 м
[Cu hum Ac trans]
+21.6 +11.6 53 +24 +32 комфорт 1012.0 997.9
В 4 20 км 3/3 1000 м
[Cu med, cong]
+22.9 +13.0 54 +26 +35 жарко 1011.3 997.2
В 4 20 км 4/4 1000 м
[Cu med, cong]
+24.4 +12.8 48 +26 +33 жарко 1010.6 996.6
В 4 20 км 5/5 1000 м
[Cu Sc]
+24.7 +12.2 46 +26 +31 жарко 1010.2 996.2
В 4 20 км 8/8 1000 м
[Sc]
+23.2 +12.6 51 +26 +27 жарко 1010.0 996.0
В 4 20 км 10/10 1000 м
[Sc]
+21.0 +13.4 62 +24 +24 комфорт 1010.0 995.9
В 4 20 км 10/6 1000 м
[Sc Ac As]
+18.0 +12.5 70 +18 +18 1010.7 996.4
ЮВ 3 20 км 10/8 1000 м
[Sc Ac As]
+17.2 +12.5 74 +17 +17 1010.7 996.4
ЮВ 3 20 км 8/8 1000 м
[Sc]
+16.7 +12.5 76 +16 +16 1010.2 995.9 +24.9
В 2 20 км 5/5 1000 м
[Sc]
+15.8 +12.4 80 +16 +16 1010.3 995.9
В 2 20 км 4/0
[Ac trans]
+15.4 +11.8 79 +15 +15 1010.6 996.2
В 2 20 км ясно +14.8 +11.7 82 +14 +14 1010.1 995.7
СВ 1 20 км ясно +13.8 +11.8 88 +14 +14 1009.6 995.1
ЮЗ 1 20 км ясно +13.0 +10.7 86 +13 +13 1009.0 994.5
З 1 20 км 6/6 1000 м
[Sc]
+12.8 +11.1 89 +13 +13 1008.9 994.4
ЮЗ 1 20 км 6/6 1000 м
[Sc]
+12.8 +11.1 89 +13 +13 1008.7 994.2
штиль 0 20 км 6/6 1000 м
[Sc]
+12.4 +9.9 85 +12 +12 1008.5 993.9
ЮЗ 1 20 км 10/0
[Ac As]
+12.3 +10.4 88 +12 +12 1008.8 994.2
ЮЗ 1 20 км 6/6 1000 м
[Sc]
+12.9 +11.2 89 +13 +13 1009.5 995.0
ЮЗ 1 20 км 6/6 1000 м
[Sc]
+13.7 +11.7 88 +14 +15 1009.9 995.4
ЮЗ 2 20 км 8/8 1000 м
[Sc]
+15.6 +12.6 82 +15 +16 1010.0 995.6 +12.2
С 1 20 км 8/8 1000 м
[Sc]
+17.7 +12.5 72 +19 +21 1010.8 996.5
С 1 20 км 6/1 1000 м
[Sc Cs]
+19.8 +12.5 63 +23 +34 комфорт 1011.2 997.0
З 2 20 км 6/3 1000 м
[Sc Cs]
+21.2 +11.5 54 +23 +33 комфорт 1010.9 996.8
В 1 20 км 8/4 1000 м
[Sc Cs]
+22.8 +12.7 53 +26 +37 жарко 1010.8 996.7
ЮВ 2 20 км 6/3 1000 м
[Cu med, cong Cs]
+24.5 +14.3 53 +27 +39 жарко 1010.1 996.1
С 2 20 км 5/3 1000 м
[Cu med, cong Ci sp]
+25.7 +14.5 50 +28 +40 жарко 1009.9 996.0
С 3 20 км 5/0
[As op]
+26.7 +14.9 48 +29 +38 жарко 1009.6 995.7
С 2 20 км 8/8 1000 м
[Cu Sc]
+26.1 +15.3 51 +29 +31 жарко 1009.1 995.2
СВ 2 {17} 20 км в посл. час гроза {дождь} 8/8 1000 м
[Cu Sc]
+19.3 +17.3 88 +22 +23 комфорт 1010.7 996.5
В 1 20 км 5/5 1000 м
[Cu Sc]
+21.5 +16.9 75 +25 +27 комфорт 1010.6 996.5
В 1 20 км 6/6 1000 м
[Cu Sc]
+21.4 +16.9 76 +25 +26 комфорт 1010.8 996.7
В 2 20 км {гроза, дождь} 6/6 1000 м
[Cu Sc]
+20.3 +16.6 79 +24 +24 комфорт 1011.3 997.1 +27.4 3
В 1 20 км 8/8 1000 м
[Sc]
+18.9 +16.4 85 +21 +21 комфорт 1011.8 997.6
З 1 20 км 8/8 1000 м
[Sc]
+18.3 +16.4 89 +20 +20 1012.7 998.4
С 1 20 км 8/8 1000 м
[Sc]
+17.7 +16.2 91 +19 +19 1012.9 998.6
ЮЗ 2 4000 м слаб. дождь {гроза} 10/0
[As op]
+16.5 +15.6 94 +17 +17 1014.0 999.6
ЮЗ 1 4000 м в посл. час дождь ясно +16.1 +15.1 94 +17 +17 1014.2 999.8
ЮЗ 2 20 км {гроза, дождь} 3/0
[Ac trans]
+15.4 +14.6 95 +15 +15 1014.4 999.9 15
ЮВ 1 20 км ясно +14.9 +14.2 96 +15 +15 1014.4 999.9
ЮЗ 1 20 км ясно +13.6 +12.9 96 +14 +14 1014.7 1000.1
Ю 1 20 км ясно +12.9 +12.2 96 +13 +13 1015.4 1000.8
штиль 0 20 км ясно +12.7 +12.0 96 +12 +13 1015.8 1001.2
Ю 1 20 км ясно +13.7 +12.3 91 +14 +16 1016.3 1002.7
ЮЗ 2 20 км {гроза, дождь} ясно +16.1 +14.3 89 +16 +21 1016.2 1001.7 +12.3 15 18.8
ЮЗ 2 20 км ясно +18.1 +15.4 84 +19 +27 1016.3 1001.9
СВ 1 20 км ясно +20.8 +11.6 56 +24 +39 комфорт 1016.1 1001.8
СВ 2 20 км ясно +22.3 +7.5 38 +23 +39 комфорт 1015.8 1001.6
СВ 2 20 км ясно +23.3 +8.1 38 +24 +43 комфорт 1015.2 1001.1
СВ 2 20 км 4/1 1000 м
[Cu hum Ci fib]
+24.9 +9.0 36 +25 +41 комфорт 1014.5 1000.5
СВ 3 20 км 6/4 1000 м
[Cu med, cong Cs]
+25.8 +9.1 35 +26 +34 жарко 1014.0 1000.0
Местоположение метеостанции Лозница (Сербия): широта 44.55 долгота 19.23 высота над уровнем моря 122 м.
В архиве по умолчанию представлена погода в Лознице за последнюю неделю. Архивные данные за месяц целиком и за предыдущие месяцы, начиная с января 2011 года, Вы можете получить, выбрав интересующий диапазон дат из раскрывающегося списка и нажав кнопку "Найти!".
*Определитесь, кто Вы:
Внимание! Время в таблицах - всемирное. Для получения местного времени необходимо прибавить поправку, которая равна 1 ч.
Некоторые строки с данными для отдельных станций могут быть выделены курсивом. Это означает, что фактические данные отсутствуют по различным причинам, а приведенные значения являются расчетными модельными данными для данного пункта наблюдений.
Смотрите также архив погоды в соседних городах и на ближайших метеорологических станциях:
Партнеры нашего сайта:      
Пояснения к столбцам:
  • Ветер - указаны скорость ветра в м/с - средняя за 10 мин, порывы в срок и между сроками (в фигурных скобках) и направление, откуда дует ветер: С - северный,
  • СВ - северо-восточный, В - восточный, ЮВ - юго-восточный, Ю - южный, ЮЗ - юго-западный, З - западный, СЗ - северо-западный.
  • Видимость - горизонтальная дальность видимости в метрах или километрах. При видимости от 1 до 10 км при отсутствии осадков обычно наблюдается дымка, при ухудшении видимости до 1 км и менее - туман. В сухую погоду видимость может ухудшаться дымом, пылью или мглою.
  • Явления - указаны атмосферные явления, наблюдавшиеся в срок или в последний час перед сроком; фигурными скобками обозначены явления, наблюдавшиеся между сроками (за 1-3 часа до срока); квадратными скобками обозначены град или гололедные отложения с указанием их диаметра в мм.
  • Облачность - указаны через наклонную черту общая и нижняя облачность в баллах и высота нижней границы облаков в метрах; квадратными скобками обозначены формы облаков: Ci - перистые, Cs - перисто-слоистые, Cc - перисто-кучевые, Ac - высококучевые, As - высокослоистые, Sc - слоисто-кучевые, Ns - слоисто-дождевые, Cu - кучевые, Cb - кучево-дождевые. Подробнее классификацию облаков см. в Атласе облаков (PDF).
  • T - Температура воздуха - температура, измеренная на высоте 2 м над землей.
  • Td - Температура точки росы - температура, при понижении до которой содержащийся в воздухе водяной пар достигнет насыщения.
  • f - Относительная влажность воздуха - влажноcть воздуха, измеренная на высоте 2 м над землей.
  • Te - Эффективная температура - температура, которую ощущает одетый по сезону человек в тени. Характеристика душности погоды. При расчете учитывается влияние влажности воздуха и скорости ветра на теплоощущения человека.
  • Tes - Эффективная температура на солнце - температура, которую ощущает человек, с поправкой на солнечный нагрев. Характеристика знойности погоды. Зависит от высоты солнца над горизонтом, облачности и скорости ветра. Ночью, в пасмурную погоду, а также при ветре 12 м/с и более поправка равна нулю.
  • P - Атмосферное давление - приведенное к уровню моря атмосферное давление.
  • Po - Атмосферное давление - измеренное на уровне метеостанции атмосферное давление.
  • Tmin - Минимальная температура - минимум температуры воздуха на высоте 2 м над землей.
  • Tmax - Максимальная температура - максимум температуры воздуха на высоте 2 м над землей.
  • R - Количество осадков - Количество выпавших осадков за период времени, мм. При наведении курсора мыши на число - период времени, за который выпало указанное количество осадков.
  • R24 - Количество осадков - Количество выпавших осадков за 24 часа, мм.
  • S - Снежный покров - Высота снежного покрова, см. При наведении курсора мыши на число - состояние снежного покрова и степень покрытия местности в баллах.